Location: Rio Tanui
(39.9167°N, 8.5167°E)
Time: 17:13:03
(UTC+00:00)

Meteor 2-2 Rocket - Pass Details

Date: 27 June 2024
Orbit: 851 x 928 km, 81.3° (Epoch: 22 July)

Event Time Altitude Azimuth Distance (km) Brightness Sun altitude
Rises 01:25:03 0° 355° (N) 3,427 8.3 -21.2°
Reaches altitude 10° 01:27:32 10° 360° (N) 2,488 7.5 -21.0°
Maximum altitude 01:33:03 55° 78° (ENE) 1,025 4.8 -20.5°
Enters shadow 01:37:46 14° 153° (SSE) 2,194 6.1 -20.0°
